Aérodrome :
LOGIN :

S'inscrire | Disclaimer

   EN    FR    IT 

 










Légende :    VFR   VFR Marginal   IFR   IFR Intensif   IFR Très Intensif
Visi : 
Plafond : 
>= 8 km
>= 3000ft
5 à 8 km
1000 à 3000 ft
1500m à 5 km
500 à 1000 ft
800 à 1500m
200 à 500 ft
< 800m
< 200 ft
Symboles :   Orages  Brouillard  Fortes neiges  Fortes précipitations  Vent > 20 kt
SIGMETs :   Divers  Orages  Givrage  Turbulence  Onde Orograph.  Cendres Volcan.







- Altitude de l'aérodrome : 74 ft
- Code IATA : NDZ


ETMN - Cuxhaven Nordholz Sea AB

DERNIER METAR :
  • 211420Z 05009KT 9000 FEW025 SCT040 BKN160 03/M07 Q1027 BLU BLU

METARs EXPIRÉS :
  • 211320Z 07006KT 9999 FEW025 SCT040 BKN150 03/M05 Q1027 BLU BLU
  • 211220Z 08007KT 9999 FEW025 SCT150 03/M05 Q1027 BLU+BLU+ BECMG BLU
  • 201420Z 07008KT 9999 FEW025 04/M02 Q1021 BLU+BLU+

TAF TAF ETMN
Valide du 21 à 15h jusqu'au 22 à 00h UTC


211447Z 2115/2124 07008KT 8000 NSW FEW025 BKN040
PROB30 2115/2119 05006KT 5000 BR SCT020 SCT040
Pas de NOTAMs connus pour ce terrain.



MET'MAP, la Météo Aéronautique d'un coup d'oeil ! - Copyright ORBIFLY Décembre 2007 - Disclaimer

ORBIFLY MET'MAP TEAM :

Programmation & Développement : Alexandra Zaïnal
Conception & Développement : Baudouin d'Aumeries
Co-Programmation & Développement : Marc-Olivier Méhu
Soutien technique & logistique : Manuel Goepfert

Contact : metmap@orbifly.com




SOURCES & CREDITS :

   NOAA